Ellensburg, WA

1:39 PM PDT on April 28, 2017 (GMT -0700)
Bowers

Weather History for KELN - January, 2012

Change the Weather History Date:

Wednesday, January 11, 2012

  Actual Average (KYKM) Record (KYKM)
Temperature  
Mean Temperature 23 °F -  
Max Temperature 32 °F 34 °F 59 °F (2014)
Min Temperature 14 °F 19 °F -4 °F (1949)
Degree Days  
Heating Degree Days 42    
Moisture  
Dew Point 11 °F    
Average Humidity 65    
Maximum Humidity 77    
Minimum Humidity 38    
Precipitation  
Precipitation 0.00 in - - ()
Sea Level Pressure  
Sea Level Pressure 30.62 in    
Wind  
Wind Speed 2 mph (ENE)    
Max Wind Speed 6 mph    
Max Gust Speed -    
Visibility 10 miles    
Events      
Averages and records for this station are not official NWS values.
T = Trace of Precipitation, MM = Missing Value Source: NWS Daily Summary

Daily Weather History Graph

Daily Weather History Graph

Search for Another Location

Airport or City:

Trip Planner

Search our weather history database for the weather conditions in past years. The results will help you decide how hot, cold, wet, or windy it might be!

Date:

Astronomy

Jan. 11, 2012 Rise Set
Actual Time 7:45 AM PST 4:34 PM PST
Civil Twilight 7:11 AM PST 5:08 PM PST
Nautical Twilight 6:33 AM PST 5:47 PM PST
Astronomical Twilight 5:56 AM PST 6:23 PM PST
Moon 7:53 PM PST (1/11) 8:48 AM PST (1/11)
Length of Visible Light 9h 57m
Length of Day
8h 48m
Waning Gibbous, 93% of the Moon is Illuminated
Jan 11
Waning Gibbous
Jan 16
Last Quarter
Jan 22
New
Jan 30
First Quarter
Feb 7
Full

Hourly Weather History & Observations

Time (PST) Temp. Windchill Dew Point Humidity Pressure Visibility Wind Dir Wind Speed Gust Speed Precip Events Conditions
12:53 AM 19.9 °F 12.1 °F 12.0 °F 71% 30.61 in 10.0 mi North 5.8 mph - N/A   Clear
3:53 AM 18.0 °F - 10.9 °F 74% 30.63 in 10.0 mi Calm Calm - N/A   Clear
4:53 AM 18.0 °F - 10.0 °F 71% 30.64 in 10.0 mi Calm Calm - N/A   Clear
5:53 AM 16.0 °F - 9.0 °F 74% 30.66 in 10.0 mi Calm Calm - N/A   Clear
6:53 AM 14.0 °F - 8.1 °F 77% 30.68 in 10.0 mi Calm Calm - N/A   Clear
7:53 AM 17.1 °F - 10.0 °F 74% 30.67 in 10.0 mi Calm Calm - N/A   Clear
8:53 AM 23.0 °F - 14.0 °F 68% 30.69 in 10.0 mi Calm Calm - N/A   Clear
9:53 AM 23.0 °F - 15.1 °F 72% 30.69 in 10.0 mi Calm Calm - N/A   Clear
10:53 AM 28.9 °F - 16.0 °F 58% 30.68 in 10.0 mi Calm Calm - N/A   Clear
11:53 AM 30.9 °F - 12.9 °F 47% 30.66 in 10.0 mi Calm Calm - N/A   Clear
1:53 PM 32.0 °F - 10.9 °F 42% 30.60 in 10.0 mi Calm Calm - N/A   Clear
3:53 PM 32.0 °F - 9.0 °F 38% 30.57 in 10.0 mi Calm Calm - N/A   Clear
4:53 PM 26.1 °F 20.5 °F 10.9 °F 53% 30.57 in 10.0 mi East 4.6 mph - N/A   Clear
5:53 PM 19.9 °F 13.4 °F 10.0 °F 65% 30.59 in 10.0 mi ENE 4.6 mph - N/A   Clear
6:53 PM 21.9 °F - 10.0 °F 60% 30.58 in 10.0 mi Calm Calm - N/A   Clear
7:53 PM 18.0 °F - 10.0 °F 71% 30.58 in 10.0 mi Calm Calm - N/A   Clear
8:53 PM 17.1 °F - 10.0 °F 74% 30.57 in 10.0 mi Calm Calm - N/A   Clear
9:53 PM 18.0 °F - 10.0 °F 71% 30.57 in 10.0 mi Calm Calm - N/A   Clear
10:53 PM 15.1 °F 7.7 °F 9.0 °F 77% 30.58 in 10.0 mi East 4.6 mph - N/A   Clear
11:53 PM 16.0 °F - 8.1 °F 71% 30.57 in 10.0 mi Calm Calm - N/A   Clear